{"data":{"norad_id":64387,"epoch":"2026-09-20T10:15:06.701760Z","epoch_age_seconds":140674,"freshness":"FRESH","line1":"1 64387U 25127T   26263.42716090  .00011824  00000+0  43827-3 0  9995","line2":"2 64387  42.9953 159.6593 0003556 263.6289  96.4157 15.27594469 72255","mean_motion":15.27594469,"eccentricity":0.0003556,"inclination_deg":42.9953,"raan_deg":159.6593,"arg_perigee_deg":263.6289,"mean_anomaly_deg":96.4157,"bstar":0.00043827,"rev_number":7225,"period_min":94.265855842137,"perigee_km":480.56594862107,"apogee_km":485.44559335979,"semimajor_km":6861.1427709904,"source":"CELESTRAK","updated_at":"2026-09-21T09:00:35.325419Z"}}